Location: Nitra
(0.0000°N, 18.0833°E)
Time: 04:56:32
(UTC+01:00)

SL-8 R/B - Pass Details

Date: 24 January 2021
Orbit: 657 x 667 km, 48.4° (Epoch: 04 March)

Event Time Altitude Azimuth Distance (km) Brightness Sun altitude
Rises 19:26:13 0° 210° (SSW) 2,978 7.8 -20.4°
Reaches altitude 10° 19:28:37 10° 204° (SSW) 2,066 6.8 -20.9°
Maximum altitude 19:33:14 50° 129° (SE) 833 3.9 -22.0°
Enters shadow 19:33:30 50° 117° (ESE) 840 3.9 -22.1°
